GW1714 Weather Reports


time (UTC)temp
C
wind
direction
speed
KPH
gust
KPH
rain 1hr
cm
rain 24hr
cm
rain mn
cm
humidity
%
barometer
mb
20260509000440 18 12 0.0 4.8 0.00 0.00 0.00 56 1031.0
20260508235935 18 54 1.6 4.8 0.00 0.00 0.00 55 1030.8
20260508235433 18 38 4.8 8.0 0.00 0.00 0.00 52 1030.8
20260508234929 18 14 1.6 3.2 0.00 0.00 0.00 52 1030.7
20260508234426 18 101 0.0 4.8 0.00 0.00 0.00 52 1030.9
20260508233924 18 6 0.0 6.4 0.00 0.00 0.00 51 1030.9
20260508233423 19 37 4.8 4.8 0.00 0.00 0.00 52 1030.9
20260508232919 19 348 1.6 6.4 0.00 0.00 0.00 51 1030.9
20260508232416 19 45 3.2 4.8 0.00 0.00 0.00 51 1030.8
20260508231914 20 51 3.2 6.4 0.00 0.00 0.00 51 1031.0
20260508231410 20 33 3.2 3.2 0.00 0.00 0.00 52 1030.9
20260508230907 20 128 0.0 3.2 0.00 0.00 0.00 47 1031.1
20260508230404 20 75 0.0 6.4 0.00 0.00 0.00 47 1030.9
20260508225856 20 33 3.2 4.8 0.00 0.00 0.00 48 1031.0
20260508225352 20 101 0.0 3.2 0.00 0.00 0.00 46 1030.8
20260508224850 19 0 0.0 1.6 0.00 0.00 0.00 50 1030.7
20260508224347 20 349 0.0 0.0 0.00 0.00 0.00 49 1030.7
20260508223845 20 19 3.2 4.8 0.00 0.00 0.00 48 1031.1
20260508223342 20 29 3.2 6.4 0.00 0.00 0.00 48 1031.0
20260508222839 20 90 0.0 4.8 0.00 0.00 0.00 49 1030.7
20260508222336 20 73 4.8 8.0 0.00 0.00 0.00 46 1031.0
20260508221833 21 151 1.6 4.8 0.00 0.00 0.00 50 1030.9
20260508221328 21 29 0.0 6.4 0.00 0.00 0.00 45 1031.1
20260508220825 21 40 3.2 3.2 0.00 0.00 0.00 46 1031.0
20260508220321 21 60 3.2 6.4 0.00 0.00 0.00 47 1031.0
20260508215818 22 139 3.2 4.8 0.00 0.00 0.00 42 1030.9
20260508215315 23 36 3.2 4.8 0.00 0.00 0.00 41 1031.0
20260508214812 23 106 0.0 3.2 0.00 0.00 0.00 41 1031.0
20260508214309 22 180 0.0 3.2 0.00 0.00 0.00 45 1031.1
20260508213805 22 174 0.0 4.8 0.00 0.00 0.00 44 1031.0
20260508213302 22 82 3.2 8.0 0.00 0.00 0.00 42 1031.0
20260508212758 21 168 0.0 4.8 0.00 0.00 0.00 42 1031.0
20260508212255 22 187 6.4 6.4 0.00 0.00 0.00 43 1031.3
20260508211751 21 90 0.0 11.3 0.00 0.00 0.00 40 1031.0
20260508211246 21 11 8.0 11.3 0.00 0.00 0.00 43 1031.0
20260508210745 23 357 4.8 4.8 0.00 0.00 0.00 47 1031.1
20260508210241 22 105 1.6 4.8 0.00 0.00 0.00 45 1031.2
20260508205738 22 144 4.8 4.8 0.00 0.00 0.00 44 1031.3
20260508205234 22 15 0.0 4.8 0.00 0.00 0.00 43 1031.0
20260508204731 21 87 4.8 9.7 0.00 0.00 0.00 46 1031.0
20260508204227 20 106 0.0 3.2 0.00 0.00 0.00 53 1031.1
20260508203723 20 31 6.4 11.3 0.00 0.00 0.00 50 1031.4
20260508203220 21 26 4.8 8.0 0.00 0.00 0.00 49 1031.1
20260508202716 21 18 4.8 4.8 0.00 0.00 0.00 53 1031.2
20260508202213 20 0 0.0 4.8 0.00 0.00 0.00 53 1031.0
20260508201710 20 28 0.0 3.2 0.00 0.00 0.00 52 1031.1
20260508201206 20 14 1.6 11.3 0.00 0.00 0.00 53 1031.1
20260508200703 20 154 3.2 6.4 0.00 0.00 0.00 55 1031.2
20260508200159 20 180 0.0 4.8 0.00 0.00 0.00 53 1031.3
20260508195656 21 14 8.0 8.0 0.00 0.00 0.00 53 1031.4
20260508195153 21 151 1.6 4.8 0.00 0.00 0.00 50 1031.8
20260508194649 21 162 1.6 3.2 0.00 0.00 0.00 50 1031.5
20260508194146 21 189 3.2 4.8 0.00 0.00 0.00 54 1031.6
20260508193643 21 156 3.2 4.8 0.00 0.00 0.00 56 1032.2
20260508193140 21 133 4.8 6.4 0.00 0.00 0.00 53 1032.4
20260508192637 21 180 0.0 0.0 0.00 0.00 0.00 55 1032.4
20260508192134 21 154 3.2 6.4 0.00 0.00 0.00 52 1032.5
20260508191630 20 145 0.0 6.4 0.00 0.00 0.00 54 1032.7
20260508191127 20 159 3.2 8.0 0.00 0.00 0.00 53 1032.8
20260508190625 20 189 0.0 6.4 0.00 0.00 0.00 56 1032.6
20260508190121 20 172 3.2 6.4 0.00 0.00 0.00 50 1032.5
20260508185618 20 41 3.2 6.4 0.00 0.00 0.00 53 1032.7
20260508185115 20 67 4.8 9.7 0.00 0.00 0.00 49 1032.9
20260508184613 21 82 0.0 4.8 0.00 0.00 0.00 55 1032.8
20260508184110 20 180 1.6 3.2 0.00 0.00 0.00 49 1033.0
20260508183606 20 148 4.8 4.8 0.00 0.00 0.00 51 1032.7
20260508183102 20 174 4.8 6.4 0.00 0.00 0.00 50 1033.0
20260508182558 20 144 4.8 6.4 0.00 0.00 0.00 52 1033.2
20260508182055 20 13 6.4 6.4 0.00 0.00 0.00 51 1033.3
20260508181555 19 174 1.6 4.8 0.00 0.00 0.00 52 1033.2
20260508181054 19 186 1.6 3.2 0.00 0.00 0.00 50 1033.2
20260508180550 19 188 3.2 3.2 0.00 0.00 0.00 52 1033.2
20260508180046 19 24 3.2 8.0 0.00 0.00 0.00 49 1033.1
20260508175543 18 161 3.2 6.4 0.00 0.00 0.00 54 1033.4
20260508175040 18 340 0.0 4.8 0.00 0.00 0.00 50 1033.3
20260508174538 18 145 1.6 6.4 0.00 0.00 0.00 57 1033.4
20260508174035 17 180 0.0 3.2 0.00 0.00 0.00 56 1033.2
20260508173532 18 180 3.2 6.4 0.00 0.00 0.00 53 1033.6
20260508173027 17 191 3.2 4.8 0.00 0.00 0.00 54 1033.7
20260508172525 17 147 0.0 3.2 0.00 0.00 0.00 53 1033.8
20260508172021 17 170 3.2 6.4 0.00 0.00 0.00 53 1033.9
20260508171518 17 127 3.2 4.8 0.00 0.00 0.00 54 1033.8
20260508171014 17 144 3.2 3.2 0.00 0.00 0.00 53 1034.3
20260508170512 17 71 1.6 1.6 0.00 0.00 0.00 60 1034.2
20260508170009 17 180 0.0 3.2 0.00 0.00 0.00 57 1034.4
20260508165506 16 166 1.6 3.2 0.00 0.00 0.00 57 1034.6
20260508165003 16 180 1.6 6.4 0.00 0.00 0.00 59 1034.4
20260508164459 16 163 3.2 3.2 0.00 0.00 0.00 56 1034.4
20260508163956 17 180 1.6 4.8 0.00 0.00 0.00 56 1034.7
20260508163454 17 82 1.6 3.2 0.00 0.00 0.00 54 1034.9
20260508162949 16 152 4.8 4.8 0.00 0.00 0.00 62 1034.9
20260508162447 16 173 1.6 3.2 0.00 0.00 0.00 60 1035.1
20260508161944 16 160 0.0 3.2 0.00 0.00 0.00 58 1035.2
20260508161441 16 166 0.0 3.2 0.00 0.00 0.00 59 1035.2
20260508160938 16 99 0.0 0.0 0.00 0.00 0.00 59 1035.3
20260508160438 16 147 3.2 3.2 0.00 0.00 0.00 62 1035.3
20260508155933 15 29 4.8 4.8 0.00 0.00 0.00 62 1035.2
20260508155430 15 188 0.0 4.8 0.00 0.00 0.00 61 1035.1
20260508154927 15 180 0.0 3.2 0.00 0.00 0.00 63 1035.1
20260508154424 15 156 3.2 4.8 0.00 0.00 0.00 62 1035.3
20260508153921 15 165 0.0 3.2 0.00 0.00 0.00 61 1035.5
20260508153418 15 187 0.0 3.2 0.00 0.00 0.00 62 1035.6
20260508152914 15 28 3.2 8.0 0.00 0.00 0.00 62 1035.3
20260508152411 14 154 0.0 0.0 0.00 0.00 0.00 63 1035.7
20260508151907 15 154 0.0 3.2 0.00 0.00 0.00 65 1035.7
20260508151404 14 180 0.0 0.0 0.00 0.00 0.00 66 1035.9
20260508150900 14 173 0.0 0.0 0.00 0.00 0.00 64 1035.4
20260508150357 13 79 3.2 3.2 0.00 0.00 0.00 60 1035.7
20260508145853 13 180 0.0 1.6 0.00 0.00 0.00 67 1035.7
20260508145349 13 180 0.0 1.6 0.00 0.00 0.00 70 1035.5
20260508144846 13 172 0.0 0.0 0.00 0.00 0.00 74 1035.6
20260508144345 13 126 0.0 0.0 0.00 0.00 0.00 78 1035.5
20260508143842 13 180 0.0 0.0 0.00 0.00 0.00 78 1035.6
20260508143339 13 106 0.0 3.2 0.00 0.00 0.00 77 1035.6
20260508142835 13 154 0.0 0.0 0.00 0.00 0.00 81 1035.6
20260508142332 12 165 0.0 1.6 0.00 0.00 0.00 81 1035.9
20260508141829 12 173 0.0 1.6 0.00 0.00 0.00 83 1035.9
20260508141326 12 157 1.6 1.6 0.00 0.00 0.00 86 1035.9
20260508140823 12 166 0.0 3.2 0.00 0.00 0.00 87 1035.8
20260508140320 12 160 1.6 4.8 0.00 0.00 0.00 89 1036.0
20260508135816 12 168 0.0 3.2 0.00 0.00 0.00 88 1036.3
20260508135312 12 157 0.0 4.8 0.00 0.00 0.00 86 1035.9
20260508134808 12 172 0.0 1.6 0.00 0.00 0.00 85 1035.9
20260508134305 12 99 0.0 0.0 0.00 0.00 0.00 86 1035.9
20260508133802 12 99 0.0 1.6 0.00 0.00 0.00 86 1035.8
20260508133300 11 23 0.0 1.6 0.00 0.00 0.00 86 1035.6
20260508132757 11 117 0.0 3.2 0.00 0.00 0.00 87 1035.9
20260508132254 11 90 0.0 0.0 0.00 0.00 0.00 87 1035.7
20260508131750 11 83 1.6 1.6 0.00 0.00 0.00 87 1035.7
20260508131246 11 114 0.0 0.0 0.00 0.00 0.00 87 1035.7
20260508130743 11 114 0.0 0.0 0.00 0.00 0.00 87 1035.8
20260508130241 11 126 0.0 1.6 0.00 0.00 0.00 87 1035.8
20260508125736 10 6 0.0 1.6 0.00 0.00 0.00 88 1035.8
20260508125232 10 0 3.2 3.2 0.00 0.00 0.00 89 1035.8
20260508124731 10 35 0.0 3.2 0.00 0.00 0.00 89 1035.8
20260508124227 10 0 3.2 3.2 0.00 0.00 0.00 88 1035.9
20260508123726 10 29 0.0 3.2 0.00 0.00 0.00 88 1035.8
20260508123224 10 7 0.0 3.2 0.00 0.00 0.00 90 1035.9
20260508122719 9 20 0.0 1.6 0.00 0.00 0.00 90 1035.7
20260508122216 8 23 0.0 1.6 0.00 0.00 0.00 92 1035.6
20260508121714 8 0 0.0 3.2 0.00 0.00 0.00 94 1035.8
20260508121213 8 12 0.0 3.2 0.00 0.00 0.00 95 1035.7
20260508120709 8 7 0.0 0.0 0.00 0.00 0.00 96 1035.5
20260508120208 8 29 0.0 1.6 0.00 0.00 0.00 96 1035.5
20260508115705 8 114 1.6 3.2 0.00 0.00 0.00 96 1035.3
20260508115202 7 120 0.0 0.0 0.00 0.00 0.00 96 1035.2
20260508114658 7 135 0.0 0.0 0.00 0.00 0.00 96 1035.2
20260508114155 8 135 3.2 3.2 0.00 0.00 0.00 96 1035.1
20260508113652 7 106 0.0 1.6 0.00 0.00 0.00 95 1035.2
20260508113150 8 23 0.0 1.6 0.00 0.00 0.00 95 1034.9
20260508112646 8 157 0.0 3.2 0.00 0.00 0.00 95 1034.9
20260508112143 8 81 0.0 0.0 0.00 0.00 0.00 95 1034.5
20260508111639 8 99 0.0 1.6 0.00 0.00 0.00 95 1034.6
20260508111137 8 29 0.0 0.0 0.00 0.00 0.00 95 1034.6
20260508110629 8 20 0.0 0.0 0.00 0.00 0.00 95 1034.6
20260508110125 8 14 0.0 1.6 0.00 0.00 0.00 95 1034.5
20260508105620 8 66 0.0 1.6 0.00 0.00 0.00 96 1034.6
20260508105117 8 7 0.0 0.0 0.00 0.00 0.00 96 1034.4
20260508104615 7 7 0.0 1.6 0.00 0.00 0.00 96 1034.5
20260508104111 8 15 0.0 1.6 0.00 0.00 0.00 95 1033.9
20260508103608 8 352 0.0 3.2 0.00 0.00 0.00 95 1034.3
20260508103106 8 60 1.6 3.2 0.00 0.00 0.00 95 1034.0
20260508102603 8 29 0.0 3.2 0.00 0.00 0.00 95 1034.0
20260508102101 8 6 1.6 3.2 0.00 0.00 0.00 95 1033.9
20260508101558 8 346 3.2 3.2 0.00 0.00 0.00 95 1034.2
20260508101055 8 0 0.0 3.2 0.00 0.00 0.00 95 1034.0
20260508100553 8 0 3.2 4.8 0.00 0.00 0.00 95 1033.8
20260508100050 8 351 3.2 3.2 0.00 0.00 0.00 95 1033.8
20260508095547 8 0 3.2 3.2 0.00 0.00 0.00 96 1033.9
20260508095043 8 342 0.0 4.8 0.00 0.00 0.00 96 1033.9
20260508094541 8 7 0.0 1.6 0.00 0.00 0.00 96 1033.7
20260508094038 8 0 1.6 3.2 0.00 0.00 0.00 96 1033.7
20260508093534 8 355 3.2 3.2 0.00 0.00 0.00 96 1033.7
20260508093032 8 354 1.6 3.2 0.00 0.00 0.00 96 1033.7
20260508092529 8 352 0.0 3.2 0.00 0.00 0.00 96 1033.6
20260508092029 8 0 0.0 3.2 0.00 0.00 0.00 96 1033.7
20260508091525 8 0 3.2 4.8 0.00 0.00 0.00 96 1033.8
20260508091022 8 356 3.2 4.8 0.00 0.00 0.00 96 1033.8
20260508090520 8 355 3.2 4.8 0.00 0.00 0.00 96 1033.7
20260508090016 8 0 1.6 4.8 0.00 0.00 0.00 95 1033.7
20260508085513 9 353 3.2 3.2 0.00 0.00 0.00 94 1033.8
20260508085010 9 356 3.2 3.2 0.00 0.00 0.00 94 1033.9
20260508084507 9 0 1.6 1.6 0.00 0.00 0.00 93 1033.6
20260508084004 9 0 1.6 3.2 0.00 0.00 0.00 93 1033.8
20260508083501 9 0 3.2 4.8 0.00 0.00 0.00 93 1033.7
20260508082956 9 356 3.2 3.2 0.00 0.00 0.00 92 1033.4
20260508082453 9 6 1.6 3.2 0.00 0.00 0.00 92 1033.6
20260508081951 9 11 1.6 3.2 0.00 0.00 0.00 93 1033.5
20260508081448 9 8 0.0 0.0 0.00 0.00 0.00 93 1033.7
20260508080944 9 7 0.0 1.6 0.00 0.00 0.00 93 1033.5
20260508080443 10 0 0.0 1.6 0.00 0.00 0.00 93 1033.8
20260508075939 10 29 0.0 3.2 0.00 0.00 0.00 93 1033.6
20260508075436 10 0 3.2 3.2 0.00 0.00 0.00 92 1033.7
20260508074933 10 354 1.6 3.2 0.00 0.00 0.00 92 1033.6
20260508074431 10 0 1.6 3.2 0.00 0.00 0.00 91 1033.8
20260508073927 10 0 0.0 3.2 0.00 0.00 0.00 90 1033.7
20260508073425 10 353 0.0 3.2 0.00 0.00 0.00 91 1033.8
20260508072922 10 356 3.2 3.2 0.00 0.00 0.00 89 1033.7
20260508072418 10 352 0.0 1.6 0.00 0.00 0.00 90 1033.7
20260508071916 10 6 1.6 4.8 0.00 0.00 0.00 91 1033.9
20260508071414 10 15 0.0 1.6 0.00 0.00 0.00 92 1033.8
20260508070911 10 353 3.2 3.2 0.00 0.00 0.00 92 1033.7
20260508070409 10 356 3.2 3.2 0.00 0.00 0.00 92 1034.0
20260508065906 10 355 1.6 4.8 0.00 0.00 0.00 90 1033.7
20260508065404 10 0 3.2 3.2 0.00 0.00 0.00 90 1033.7
20260508064902 10 0 1.6 3.2 0.00 0.00 0.00 90 1033.8
20260508064359 10 353 1.6 3.2 0.00 0.00 0.00 87 1033.9
20260508063857 10 7 1.6 3.2 0.00 0.00 0.00 85 1034.0
20260508063354 10 26 0.0 1.6 0.00 0.00 0.00 87 1033.8
20260508062852 11 337 0.0 3.2 0.00 0.00 0.00 89 1034.0
20260508062349 11 0 0.0 3.2 0.00 0.00 0.00 84 1033.8
20260508061846 11 0 0.0 3.2 0.00 0.00 0.00 80 1034.0
20260508061343 11 8 0.0 1.6 0.00 0.00 0.00 79 1033.8
20260508060839 11 14 0.0 1.6 0.00 0.00 0.00 82 1034.0
20260508060338 10 14 0.0 1.6 0.00 0.00 0.00 85 1034.2
20260508055832 10 0 0.0 3.2 0.00 0.00 0.00 88 1034.3
20260508055330 11 344 3.2 3.2 0.00 0.00 0.00 88 1033.9
20260508054826 11 23 0.0 0.0 0.00 0.00 0.00 76 1034.0
20260508054324 11 23 0.0 0.0 0.00 0.00 0.00 82 1034.2
20260508053821 11 8 0.0 0.0 0.00 0.00 0.00 85 1034.3
20260508053318 11 0 0.0 0.0 0.00 0.00 0.00 87 1034.0
20260508052815 11 0 0.0 1.6 0.00 0.00 0.00 83 1033.9
20260508052312 12 0 0.0 1.6 0.00 0.00 0.00 76 1034.3
20260508051809 12 352 0.0 0.0 0.00 0.00 0.00 73 1034.2
20260508051304 11 352 0.0 0.0 0.00 0.00 0.00 78 1034.3
20260508050801 11 0 0.0 0.0 0.00 0.00 0.00 84 1034.3
20260508050258 11 0 0.0 3.2 0.00 0.00 0.00 91 1034.3
20260508045753 11 0 3.2 4.8 0.00 0.00 0.00 94 1033.9
20260508045251 11 7 1.6 1.6 0.00 0.00 0.00 93 1033.7
20260508044749 11 0 1.6 1.6 0.00 0.00 0.00 93 1033.8
20260508044245 11 15 0.0 1.6 0.00 0.00 0.00 94 1034.0
20260508043741 11 8 0.0 1.6 0.00 0.00 0.00 94 1033.8
20260508043239 11 352 0.0 4.8 0.00 0.00 0.00 94 1033.7
20260508042735 11 11 1.6 1.6 0.00 0.00 0.00 95 1033.6
20260508042233 11 0 1.6 4.8 0.00 0.00 0.00 94 1033.8
20260508041729 12 0 3.2 3.2 0.00 0.00 0.00 92 1033.9
20260508041226 12 14 0.0 1.6 0.00 0.00 0.00 89 1033.9
20260508040723 12 8 0.0 0.0 0.00 0.00 0.00 89 1033.7
20260508040220 12 8 0.0 0.0 0.00 0.00 0.00 91 1033.5
20260508035717 12 8 0.0 1.6 0.00 0.38 0.38 92 1033.9
20260508035215 11 23 0.0 0.0 0.00 0.38 0.38 92 1033.5
20260508034711 11 15 0.0 1.6 0.00 0.38 0.38 93 1033.5
20260508034209 11 0 0.0 0.0 0.00 0.38 0.38 94 1033.5
20260508033705 11 0 1.6 3.2 0.00 0.38 0.38 95 1033.5
20260508033204 11 8 0.0 1.6 0.00 0.38 0.38 96 1033.4
20260508032701 11 0 3.2 3.2 0.00 0.38 0.38 96 1033.7
20260508032158 11 0 3.2 3.2 0.00 0.38 0.38 96 1033.7
20260508031654 11 352 3.2 4.8 0.00 0.38 0.38 97 1033.5
20260508031151 11 352 4.8 4.8 0.00 0.38 0.38 96 1033.7
20260508030647 11 355 4.8 4.8 0.00 0.38 0.38 96 1033.7
20260508030145 11 0 4.8 4.8 0.00 0.38 0.38 95 1033.4
20260508025641 11 0 0.0 1.6 0.00 0.38 0.38 95 1033.3
20260508025138 12 0 0.0 1.6 0.00 0.38 0.38 95 1033.1
20260508024634 12 18 1.6 3.2 0.00 0.38 0.38 94 1033.2
20260508024132 12 157 0.0 0.0 0.00 0.38 0.38 93 1033.2
20260508023628 12 159 3.2 3.2 0.00 0.38 0.38 91 1033.2
20260508023126 12 0 0.0 0.0 0.00 0.38 0.38 91 1033.2
20260508022621 12 0 0.0 0.0 0.00 0.38 0.38 91 1033.3
20260508022119 12 0 1.6 1.6 0.00 0.38 0.38 91 1033.2
20260508021614 12 81 0.0 0.0 0.00 0.38 0.38 92 1033.1
20260508021110 13 81 0.0 1.6 0.00 0.38 0.38 91 1033.4
20260508020608 13 23 0.0 0.0 0.00 0.38 0.38 90 1033.0
20260508020105 13 23 0.0 1.6 0.00 0.38 0.38 89 1032.9
20260508015603 13 0 0.0 0.0 0.00 0.38 0.38 90 1032.5
20260508015059 13 0 0.0 0.0 0.00 0.38 0.38 89 1032.5
20260508014555 13 0 1.6 3.2 0.00 0.38 0.38 86 1032.5
20260508014052 13 352 0.0 1.6 0.00 0.38 0.38 87 1032.4
20260508013548 13 5 3.2 4.8 0.00 0.38 0.38 89 1032.5
20260508013045 13 342 1.6 3.2 0.00 0.38 0.38 86 1032.4
20260508012543 13 348 1.6 3.2 0.00 0.38 0.38 87 1032.1
20260508012040 13 0 3.2 3.2 0.00 0.38 0.38 86 1032.3
20260508011538 12 0 3.2 3.2 0.00 0.38 0.38 85 1032.1
20260508011035 12 354 1.6 3.2 0.00 0.38 0.38 85 1032.1
20260508010532 12 0 0.0 3.2 0.00 0.38 0.38 86 1032.2
20260508010029 13 5 3.2 3.2 0.00 0.38 0.38 86 1031.8
20260508005526 12 0 0.0 4.8 0.00 0.38 0.38 89 1032.2
20260508005023 12 351 3.2 3.2 0.00 0.38 0.38 88 1032.1
20260508004519 13 7 1.6 1.6 0.00 0.38 0.38 88 1032.1
20260508004015 12 0 1.6 3.2 0.00 0.38 0.38 89 1031.9
20260508003512 13 356 3.2 3.2 0.00 0.38 0.38 90 1031.7
20260508003010 13 0 0.0 3.2 0.00 0.38 0.38 90 1031.6
20260508002505 13 4 3.2 3.2 0.00 0.38 0.38 89 1031.5
20260508002003 13 0 3.2 3.2 0.00 0.38 0.38 89 1031.4
20260508001458 13 0 3.2 3.2 0.00 0.38 0.38 89 1031.3
20260508000955 13 0 4.8 4.8 0.00 0.38 0.38 90 1031.4